Regional Weather Roundup
Issued by NWS

Home | Current Version | Previous Version | Text Only | Print | Product List | Glossary Off
Versions: 1 2 3 4 5 6 7 8 9 10 11 12 13 14 15 16 17 18 19 20 21 22 23 24 25 26 27 28 29 30 31 32 33 34 35 36 37 38 39 40 41 42 43 44 45 46 47 48 49 50

000
ASUS43 KMPX 272010
RWRMN
WEATHER ROUNDUP FOR MINNESOTA
NATIONAL WEATHER SERVICE TWIN CITIES/CHANHASSEN MN
300 PM CDT FRI MAR 27 2015


NOTE: "FAIR" INDICATES FEW OR NO CLOUDS BELOW 12,000 FEET WITH NO
SIGNIFICANT WEATHER AND/OR OBSTRUCTIONS TO VISIBILITY. N/A MEANS
CURRENT SKY AND/OR WEATHER CONDITIONS ARE NOT AVAILABLE.

MNZ060>063-068>070-272100-
   Twin Cities Metro

CITY           SKY/WX    TMP DP  RH WIND       PRES   REMARKS
TWIN CITIES    MOSUNNY   34  -1  22 E8        30.19F WCI  27
ST PAUL        SUNNY     35  -2  20 VRB7      30.20F WCI  29
CRYSTAL        SUNNY     35   1  23 SW5       30.18F WCI  31
BLAINE         MOSUNNY   36   1  23 CALM      30.18F
LAKEVILLE      SUNNY     28   9  43 S6        30.20F WCI  22
EDEN PRAIRIE   SUNNY     34   9  35 S8        30.19F WCI  27
SOUTH ST PAUL  SUNNY     35   1  24 SW5       30.19F WCI  31
LAKE ELMO      FAIR      34   7  32 SE3       30.19F
$$
MNZ001>005-007-008-013>017-022>024-027-028-272100-
   Northwest Minnesota

CITY           SKY/WX    TMP DP  RH WIND       PRES   REMARKS
BEMIDJI        MOSUNNY   33   2  27 SE6       30.10F WCI  27
HALLOCK        PTSUNNY   32  18  55 S13       30.10F WCI  22
ROSEAU         PTSUNNY   30  12  47 S9        30.11F WCI  22
WARROAD        PTSUNNY   30  12  47 S6        30.12F WCI  24
THIEF RVR FALL PTSUNNY   32  10  40 S8        30.11F WCI  25
CROOKSTON      CLOUDY    34   7  32 SW10      30.13F WCI  26
FOSSTON        MOSUNNY   34   5  29 S8        30.11F WCI  27
DETROIT LAKES  PTSUNNY   32   5  32 SW8       30.12F WCI  25
MOORHEAD       CLOUDY    36  -2  20 S9        30.11F
PARK RAPIDS    MOSUNNY   35   2  24 VRB7      30.10F WCI  29
MAHNOMEN       FAIR      33   8  34 SW14      30.10F WCI  23
$$
MNZ006-009>011-018-025>026-272100-
   North Central Minnesota

CITY           SKY/WX    TMP DP  RH WIND       PRES   REMARKS
BAUDETTE       MOSUNNY   32   7  35 S7        30.11F WCI  26
FLAG ISLAND    MOSUNNY   25  10  54 SE10      30.12F WCI  15
INTL FALLS     SUNNY     33   5  30 VRB5      30.13F WCI  29
WASKISH        MOSUNNY   30  12  47 CALM      30.13F
BIG FORK       SUNNY     34   3  27 S6        30.12F WCI  29
LONGVILLE      MOSUNNY   34   1  25 SW7       30.12F WCI  28
GRAND RAPIDS   SUNNY     30   1  29 SW3       30.13S
CRANE LAKE     SUNNY     30  -2  24 S2        30.15F
ORR            SUNNY     34  -4  19 CALM      30.10F
COOK           SUNNY     32   1  27 CALM      30.12F
WALKER         FAIR      31   4  31 E5        30.11F WCI  27
$$
MNZ012-019>021-037-272100-
   Northeast Minnesota

CITY           SKY/WX    TMP DP  RH WIND       PRES   REMARKS
DULUTH         SUNNY     28   8  43 SE10      30.14F WCI  19
ELY            SUNNY     30  -6  21 N3        30.12F
HIBBING        SUNNY     33   1  25 VRB3      30.11F
EVELETH        SUNNY     32   1  27 CALM      30.13F
DULUTH HARBOR  SUNNY     28  12  50 CALM      30.21F
TWO HARBORS    SUNNY     28  16  59 SE8       30.17F WCI  20
SILVER BAY     SUNNY     27  12  54 SE7       30.17F WCI  19
GRAND MARAIS     N/A     21   6  52 CALM      30.24F
G MARAIS ARPRT SUNNY     19   1  45 S8        30.14F WCI   9
$$
MNZ029>031-032-039>041-046>048-054>057-064-272100-
   West Central Minnesota

CITY           SKY/WX    TMP DP  RH WIND       PRES   REMARKS
FERGUS FALLS   CLOUDY    32   3  29 S12       30.15F WCI  23
WHEATON        CLOUDY    32  16  51 S7        30.14F WCI  26
MORRIS         CLOUDY    34  14  44 S12       30.13F WCI  25
ALEXANDRIA     PTSUNNY   30   6  36 SW8       30.14F WCI  22
ELBOW LAKE     FAIR      32  10  38 S14       30.13F WCI  22
WADENA         MOSUNNY   34   7  32 SW7       30.11F WCI  28
GLENWOOD       PTSUNNY   30  10  43 S8        30.14F WCI  23
APPLETON       PTSUNNY   37   3  23 S5        30.14F
BENSON         PTSUNNY   36  10  35 SW6       30.15F
ORTONVILLE     CLOUDY    36   7  30 S8        30.12F
MADISON        PTSUNNY   37   3  23 S8        30.13F
WILLMAR        FAIR      32  12  43 SE7       30.17F WCI  26
$$
MNZ033>034-036-042>043-049>051-058-059-272100-
   Central Minnesota

CITY           SKY/WX    TMP DP  RH WIND       PRES   REMARKS
ST CLOUD       SUNNY     33   1  25 SE7       30.16F WCI  27
SAUK CENTRE    FAIR      32   9  38 S7        30.15F WCI  25
PAYNESVILLE    MOSUNNY   28   9  44 SE9       30.17F WCI  19
AITKIN         SUNNY     36  -4  18 S7        30.13F
PINE RIVER     SUNNY     34   9  35 CALM      30.16F
BRAINERD       SUNNY     34   1  24 MISG      30.14F
STAPLES        SUNNY     34   1  25 S9        30.13F WCI  26
LONG PRAIRIE   FAIR      32  10  40 S7        30.14F WCI  26
LITTLE FALLS   SUNNY     32   1  27 S5        30.16F WCI  27
LITCHFIELD     MOSUNNY   30   9  40 S5        30.18F WCI  25
BUFFALO        SUNNY     34   5  29 S5        30.19  WCI  30
MAPLE LAKE     SUNNY     34   9  35 SE8       30.18F WCI  27
$$
MNZ037-044-045-052-053-272100-
   East Central Minnesota

CITY           SKY/WX    TMP DP  RH WIND       PRES   REMARKS
PRINCETON      SUNNY     36   0  21 E3        30.17F
MORA           SUNNY     32   0  25 CALM      30.19F
CAMBRIDGE      SUNNY     36  12  38 SW3       30.16F
RUSH CITY      SUNNY     32   5  32 SW5       30.18F WCI  28
MOOSE LAKE     SUNNY     34   5  29 CALM      30.14F
HINCKLEY       FAIR      34   7  32 CALM      30.17F
CLOQUET        SUNNY     32  -2  23 E7        30.14F WCI  26
MCGREGOR       SUNNY     32   3  29 CALM      30.14F
$$
MNZ071>073-080-081-089-090-097-098-272100-
   Southwest Minnesota

CITY           SKY/WX    TMP DP  RH WIND       PRES   REMARKS
MONTEVIDEO     PTSUNNY   37  12  35 S3        30.16F
GRANITE FALLS  PTSUNNY   35  12  39 SE7       30.17F WCI  29
CANBY          CLOUDY    36   3  25 S7        30.14F
MARSHALL       PTSUNNY   36   7  30 SW10      30.15F
REDWOOD FALLS  PTSUNNY   35  13  40 VRB6      30.16F WCI  30
OLIVIA         PTSUNNY   32  18  55 SE6       30.16F WCI  26
PIPESTONE      CLOUDY    34   9  35 SW8       30.11F WCI  27
WINDOM         MOSUNNY   36   5  27 CALM      30.15F
WORTHINGTON    PTSUNNY   34   5  29 CALM      30.15F
JACKSON        MOSUNNY   34   5  29 SW6       30.15F WCI  29
TRACY          PTSUNNY   36   7  29 SW5       30.14F
SLAYTON        PTSUNNY   34  -1  22 CALM      30.14F
$$
MNZ065>067-074>077-082>085-091>093-272100-
   South Central Minnesota

CITY           SKY/WX    TMP DP  RH WIND       PRES   REMARKS
MANKATO        MOSUNNY   30   9  40 SE3       30.20F
NEW ULM        PTSUNNY   34  10  37 S3        30.18F
ST JAMES       MOSUNNY   36  12  38 NE3       30.19F
FAIRMONT       MOSUNNY   34   5  29 CALM      30.17F
GLENCOE        MOSUNNY   31   8  38 S5        30.19F WCI  26
FARIBAULT      SUNNY     30   7  37 NW5       30.20F WCI  25
OWATONNA       SUNNY     28   7  40 CALM      30.20F
WASECA         SUNNY     30  10  43 CALM      30.22F
ALBERT LEA     SUNNY     30  10  43 NE6       30.19F WCI  24
$$
MNZ078>079-086>088-094>096-272100-
   Southeast Minnesota

CITY           SKY/WX    TMP DP  RH WIND       PRES   REMARKS
ROCHESTER      SUNNY     27   8  44 NW5       30.19F WCI  22
RED WING       SUNNY     36   3  25 W7        30.19F
STANTON        SUNNY     30   6  36 CALM      30.20F
DODGE CENTER   SUNNY     27   9  46 CALM      30.19F
WINONA         SUNNY     34  10  37 N5        30.21F WCI  30
AUSTIN         SUNNY     28  12  50 N5        30.19F WCI  23
PRESTON        SUNNY     27   7  42 NW5       30.19F WCI  21
$$
ABBREVIATIONS USED IN REMARKS
   TC - TEMPERATURES IN CELSIUS
  WCI - WIND CHILL INDEX
   HX - HEAT INDEX
  VSB - VISIBILITY
$$


USA.gov is the U.S. government's official web portal to all federal, state and local government web resources and services.